| time (UTC) | temp F | wind direction | speed MPH | gust MPH | rain 1hr in | rain 24hr in | rain mn in | humidity % | barometer mb |
| 20260507192503 | 64 | 117 | 3.0 | 7.0 | 0.00 | 0.00 | 0.00 | 72 | 1015.4 |
| 20260507192003 | 64 | 123 | 3.0 | 7.0 | 0.00 | 0.00 | 0.00 | 72 | 1015.6 |
| 20260507191503 | 65 | 110 | 3.0 | 7.0 | 0.00 | 0.00 | 0.00 | 71 | 1015.6 |
| 20260507191003 | 65 | 110 | 4.0 | 7.0 | 0.00 | 0.00 | 0.00 | 71 | 1015.3 |
| 20260507190504 | 64 | 126 | 4.0 | 7.0 | 0.00 | 0.00 | 0.00 | 71 | 1015.4 |
| 20260507190004 | 64 | 138 | 4.0 | 6.0 | 0.00 | 0.00 | 0.00 | 72 | 1015.5 |
| 20260507185504 | 65 | 150 | 4.0 | 6.0 | 0.00 | 0.00 | 0.00 | 71 | 1015.5 |
| 20260507185003 | 65 | 149 | 3.0 | 6.0 | 0.00 | 0.00 | 0.00 | 71 | 1015.3 |
| 20260507184712 | 65 | 148 | 3.0 | 6.0 | 0.00 | 0.00 | 0.00 | 71 | 1015.3 |
| 20260507184003 | 65 | 144 | 2.0 | 4.0 | 0.00 | 0.00 | 0.00 | 72 | 1015.3 |
| 20260507183503 | 65 | 159 | 2.0 | 4.0 | 0.00 | 0.00 | 0.00 | 72 | 1015.3 |
| 20260507183213 | 65 | 162 | 2.0 | 4.0 | 0.00 | 0.00 | 0.00 | 72 | 1015.2 |
| 20260507182504 | 65 | 157 | 3.0 | 5.0 | 0.00 | 0.00 | 0.00 | 72 | 1015.1 |
| 20260507182003 | 65 | 137 | 4.0 | 6.0 | 0.00 | 0.00 | 0.00 | 72 | 1015.1 |
| 20260507181503 | 66 | 113 | 3.0 | 8.0 | 0.00 | 0.00 | 0.00 | 71 | 1015.2 |
| 20260507181005 | 66 | 111 | 4.0 | 9.0 | 0.00 | 0.00 | 0.00 | 71 | 1015.1 |
| 20260507180714 | 66 | 115 | 5.0 | 12.0 | 0.00 | 0.00 | 0.00 | 71 | 1015.0 |
| 20260507180003 | 66 | 139 | 8.0 | 15.0 | 0.00 | 0.00 | 0.00 | 71 | 1014.9 |
| 20260507175714 | 66 | 139 | 10.0 | 16.0 | 0.00 | 0.00 | 0.00 | 71 | 1014.6 |
| 20260507175004 | 66 | 133 | 11.0 | 16.0 | 0.00 | 0.00 | 0.00 | 71 | 1014.8 |
| 20260507174504 | 66 | 132 | 10.0 | 16.0 | 0.00 | 0.00 | 0.00 | 72 | 1014.7 |
| 20260507174003 | 66 | 127 | 8.0 | 16.0 | 0.00 | 0.00 | 0.00 | 74 | 1014.7 |
| 20260507173503 | 66 | 122 | 8.0 | 18.0 | 0.00 | 0.00 | 0.00 | 74 | 1014.6 |
| 20260507173005 | 65 | 118 | 9.0 | 18.0 | 0.00 | 0.00 | 0.00 | 75 | 1014.5 |
| 20260507172714 | 66 | 117 | 10.0 | 18.0 | 0.00 | 0.00 | 0.00 | 75 | 1014.5 |
| 20260507172005 | 65 | 116 | 10.0 | 21.0 | 0.00 | 0.00 | 0.00 | 77 | 1014.6 |
| 20260507171714 | 65 | 117 | 10.0 | 21.0 | 0.00 | 0.00 | 0.00 | 78 | 1014.6 |
| 20260507171003 | 65 | 113 | 11.0 | 21.0 | 0.00 | 0.00 | 0.00 | 79 | 1014.6 |
| 20260507170505 | 65 | 115 | 10.0 | 20.0 | 0.00 | 0.00 | 0.00 | 80 | 1014.4 |
| 20260507170003 | 65 | 114 | 9.0 | 21.0 | 0.00 | 0.00 | 0.00 | 80 | 1014.5 |
| 20260507165504 | 65 | 116 | 11.0 | 21.0 | 0.00 | 0.00 | 0.00 | 79 | 1014.7 |
| 20260507165003 | 65 | 125 | 9.0 | 17.0 | 0.00 | 0.00 | 0.00 | 79 | 1014.8 |
| 20260507164503 | 66 | 123 | 6.0 | 16.0 | 0.00 | 0.00 | 0.00 | 76 | 1014.6 |
| 20260507164003 | 66 | 107 | 7.0 | 17.0 | 0.00 | 0.00 | 0.00 | 74 | 1014.6 |
| 20260507163503 | 66 | 106 | 9.0 | 17.0 | 0.00 | 0.00 | 0.00 | 73 | 1014.4 |
| 20260507163003 | 66 | 106 | 7.0 | 16.0 | 0.00 | 0.00 | 0.00 | 72 | 1014.5 |
| 20260507162716 | 67 | 91 | 6.0 | 16.0 | 0.00 | 0.00 | 0.00 | 69 | 1014.6 |
| 20260507162003 | 67 | 78 | 5.0 | 12.0 | 0.00 | 0.00 | 0.00 | 64 | 1014.7 |
| 20260507161713 | 66 | 82 | 5.0 | 14.0 | 0.00 | 0.00 | 0.00 | 64 | 1014.7 |
| 20260507161212 | 66 | 80 | 6.0 | 14.0 | 0.00 | 0.00 | 0.00 | 64 | 1014.8 |
| 20260507160504 | 66 | 83 | 6.0 | 15.0 | 0.00 | 0.00 | 0.00 | 59 | 1014.6 |
| 20260507160003 | 66 | 95 | 6.0 | 15.0 | 0.00 | 0.00 | 0.00 | 57 | 1014.5 |
| 20260507155505 | 66 | 103 | 5.0 | 13.0 | 0.00 | 0.00 | 0.00 | 58 | 1014.6 |
| 20260507155003 | 66 | 94 | 6.0 | 13.0 | 0.00 | 0.00 | 0.00 | 60 | 1015.0 |
| 20260507154503 | 66 | 84 | 7.0 | 13.0 | 0.00 | 0.00 | 0.00 | 58 | 1014.7 |
| 20260507154212 | 66 | 84 | 6.0 | 11.0 | 0.00 | 0.00 | 0.00 | 61 | 1014.8 |
| 20260507153504 | 66 | 67 | 6.0 | 14.0 | 0.00 | 0.00 | 0.00 | 59 | 1014.9 |
| 20260507153003 | 66 | 71 | 7.0 | 14.0 | 0.00 | 0.00 | 0.00 | 56 | 1014.8 |
| 20260507152503 | 65 | 70 | 7.0 | 14.0 | 0.00 | 0.00 | 0.00 | 58 | 1014.7 |
| 20260507152003 | 66 | 69 | 7.0 | 13.0 | 0.00 | 0.00 | 0.00 | 54 | 1014.9 |
| 20260507151503 | 67 | 76 | 6.0 | 16.0 | 0.00 | 0.00 | 0.00 | 52 | 1014.7 |
| 20260507151003 | 66 | 80 | 8.0 | 16.0 | 0.00 | 0.00 | 0.00 | 52 | 1014.8 |
| 20260507150503 | 66 | 81 | 8.0 | 16.0 | 0.00 | 0.00 | 0.00 | 52 | 1014.8 |
| 20260507150005 | 66 | 75 | 8.0 | 15.0 | 0.00 | 0.00 | 0.00 | 49 | 1014.8 |
| 20260507145503 | 66 | 68 | 7.0 | 15.0 | 0.00 | 0.00 | 0.00 | 52 | 1014.8 |
| 20260507145003 | 65 | 70 | 10.0 | 16.0 | 0.00 | 0.00 | 0.00 | 50 | 1014.8 |
| 20260507144505 | 65 | 71 | 10.0 | 16.0 | 0.00 | 0.00 | 0.00 | 51 | 1014.9 |
| 20260507144004 | 66 | 70 | 7.0 | 14.0 | 0.00 | 0.00 | 0.00 | 55 | 1014.9 |
| 20260507143503 | 66 | 64 | 5.0 | 12.0 | 0.00 | 0.00 | 0.00 | 58 | 1014.7 |
| 20260507143214 | 67 | 65 | 5.0 | 12.0 | 0.00 | 0.00 | 0.00 | 59 | 1014.9 |
| 20260507142505 | 66 | 70 | 7.0 | 14.0 | 0.00 | 0.00 | 0.00 | 59 | 1015.0 |
| 20260507142003 | 66 | 66 | 7.0 | 14.0 | 0.00 | 0.00 | 0.00 | 56 | 1015.0 |
| 20260507141713 | 66 | 70 | 8.0 | 13.0 | 0.00 | 0.00 | 0.00 | 57 | 1014.9 |
| 20260507141003 | 66 | 67 | 7.0 | 16.0 | 0.00 | 0.00 | 0.00 | 54 | 1015.0 |
| 20260507140503 | 66 | 71 | 8.0 | 16.0 | 0.00 | 0.00 | 0.00 | 57 | 1015.0 |
| 20260507140003 | 66 | 76 | 8.0 | 14.0 | 0.00 | 0.00 | 0.00 | 52 | 1014.9 |
| 20260507135503 | 66 | 65 | 8.0 | 14.0 | 0.00 | 0.00 | 0.00 | 56 | 1014.9 |
| 20260507135003 | 66 | 60 | 8.0 | 15.0 | 0.00 | 0.00 | 0.00 | 58 | 1015.1 |
| 20260507134503 | 65 | 68 | 9.0 | 15.0 | 0.00 | 0.00 | 0.00 | 54 | 1015.0 |
| 20260507134214 | 65 | 70 | 8.0 | 13.0 | 0.00 | 0.00 | 0.00 | 56 | 1015.0 |
| 20260507133503 | 65 | 65 | 8.0 | 15.0 | 0.00 | 0.00 | 0.00 | 57 | 1015.0 |
| 20260507133003 | 66 | 67 | 8.0 | 14.0 | 0.00 | 0.00 | 0.00 | 54 | 1015.1 |
| 20260507132503 | 66 | 63 | 8.0 | 16.0 | 0.00 | 0.00 | 0.00 | 54 | 1014.9 |
| 20260507132003 | 65 | 51 | 7.0 | 16.0 | 0.00 | 0.00 | 0.00 | 55 | 1014.9 |
| 20260507131503 | 66 | 48 | 6.0 | 16.0 | 0.00 | 0.00 | 0.00 | 56 | 1015.0 |
| 20260507131005 | 66 | 54 | 7.0 | 16.0 | 0.00 | 0.00 | 0.00 | 59 | 1015.0 |
| 20260507130505 | 66 | 51 | 8.0 | 17.0 | 0.00 | 0.00 | 0.00 | 57 | 1015.0 |
| 20260507130004 | 66 | 59 | 8.0 | 17.0 | 0.00 | 0.00 | 0.00 | 58 | 1015.1 |
| 20260507125503 | 66 | 59 | 7.0 | 16.0 | 0.00 | 0.00 | 0.00 | 54 | 1014.9 |
| 20260507125005 | 66 | 55 | 8.0 | 17.0 | 0.00 | 0.00 | 0.00 | 57 | 1014.9 |
| 20260507124503 | 65 | 60 | 7.0 | 17.0 | 0.00 | 0.00 | 0.00 | 58 | 1015.0 |
| 20260507124003 | 66 | 57 | 7.0 | 17.0 | 0.00 | 0.00 | 0.00 | 58 | 1015.0 |
| 20260507123503 | 66 | 57 | 8.0 | 17.0 | 0.00 | 0.00 | 0.00 | 58 | 1015.0 |
| 20260507123004 | 66 | 56 | 7.0 | 15.0 | 0.00 | 0.00 | 0.00 | 58 | 1015.1 |
| 20260507122503 | 66 | 60 | 6.0 | 13.0 | 0.00 | 0.00 | 0.00 | 54 | 1015.1 |
| 20260507122005 | 67 | 57 | 7.0 | 13.0 | 0.00 | 0.00 | 0.00 | 50 | 1014.9 |
| 20260507121714 | 67 | 52 | 7.0 | 13.0 | 0.00 | 0.00 | 0.00 | 53 | 1014.9 |
| 20260507121003 | 67 | 49 | 7.0 | 13.0 | 0.00 | 0.00 | 0.00 | 52 | 1015.1 |
| 20260507120503 | 66 | 62 | 9.0 | 13.0 | 0.00 | 0.00 | 0.00 | 51 | 1015.1 |
| 20260507120004 | 66 | 63 | 9.0 | 14.0 | 0.00 | 0.00 | 0.00 | 51 | 1015.0 |
| 20260507115503 | 66 | 47 | 9.0 | 16.0 | 0.00 | 0.00 | 0.00 | 52 | 1015.1 |
| 20260507115213 | 65 | 41 | 9.0 | 16.0 | 0.00 | 0.00 | 0.00 | 52 | 1015.0 |
| 20260507114503 | 65 | 65 | 7.0 | 13.0 | 0.00 | 0.00 | 0.00 | 52 | 1015.1 |
| 20260507114003 | 66 | 61 | 6.0 | 13.0 | 0.00 | 0.00 | 0.00 | 53 | 1015.1 |
| 20260507113505 | 67 | 54 | 6.0 | 13.0 | 0.00 | 0.00 | 0.00 | 53 | 1015.2 |
| 20260507113003 | 66 | 45 | 6.0 | 15.0 | 0.00 | 0.00 | 0.00 | 52 | 1015.0 |
| 20260507112503 | 66 | 46 | 6.0 | 15.0 | 0.00 | 0.00 | 0.00 | 51 | 1015.3 |
| 20260507112003 | 66 | 49 | 7.0 | 14.0 | 0.00 | 0.00 | 0.00 | 54 | 1015.4 |
| 20260507111713 | 66 | 40 | 8.0 | 15.0 | 0.00 | 0.00 | 0.00 | 54 | 1015.3 |
| 20260507111003 | 65 | 35 | 7.0 | 15.0 | 0.00 | 0.00 | 0.00 | 51 | 1015.2 |
| 20260507110505 | 65 | 50 | 9.0 | 15.0 | 0.00 | 0.00 | 0.00 | 52 | 1015.4 |
| 20260507110214 | 65 | 57 | 9.0 | 16.0 | 0.00 | 0.00 | 0.00 | 54 | 1015.5 |
| 20260507105503 | 65 | 58 | 10.0 | 18.0 | 0.00 | 0.00 | 0.00 | 58 | 1015.4 |
| 20260507105003 | 66 | 53 | 8.0 | 15.0 | 0.00 | 0.00 | 0.00 | 55 | 1015.5 |
| 20260507104504 | 67 | 45 | 7.0 | 16.0 | 0.00 | 0.00 | 0.00 | 53 | 1015.3 |
| 20260507104003 | 67 | 31 | 6.0 | 16.0 | 0.00 | 0.00 | 0.00 | 53 | 1015.1 |
| 20260507103503 | 67 | 32 | 6.0 | 14.0 | 0.00 | 0.00 | 0.00 | 53 | 1015.4 |
| 20260507103003 | 67 | 33 | 7.0 | 17.0 | 0.00 | 0.00 | 0.00 | 53 | 1015.3 |
| 20260507102713 | 67 | 30 | 9.0 | 17.0 | 0.00 | 0.00 | 0.00 | 53 | 1015.2 |
| 20260507102003 | 68 | 24 | 7.0 | 17.0 | 0.00 | 0.00 | 0.00 | 52 | 1015.3 |
| 20260507101503 | 69 | 17 | 5.0 | 13.0 | 0.00 | 0.00 | 0.00 | 51 | 1015.3 |
| 20260507101003 | 69 | 10 | 6.0 | 13.0 | 0.00 | 0.00 | 0.00 | 50 | 1015.5 |
| 20260507100503 | 67 | 15 | 7.0 | 14.0 | 0.00 | 0.00 | 0.00 | 52 | 1015.3 |
| 20260507100004 | 67 | 13 | 8.0 | 15.0 | 0.00 | 0.00 | 0.00 | 53 | 1015.5 |
| 20260507095713 | 67 | 1 | 8.0 | 16.0 | 0.00 | 0.00 | 0.00 | 51 | 1015.4 |
| 20260507095214 | 67 | 344 | 7.0 | 16.0 | 0.00 | 0.00 | 0.00 | 53 | 1015.4 |
| 20260507094715 | 67 | 344 | 6.0 | 15.0 | 0.00 | 0.00 | 0.00 | 52 | 1015.3 |
| 20260507094214 | 67 | 348 | 7.0 | 14.0 | 0.00 | 0.00 | 0.00 | 54 | 1015.4 |
| 20260507093505 | 67 | 357 | 6.0 | 14.0 | 0.00 | 0.00 | 0.00 | 54 | 1015.4 |
| 20260507093003 | 67 | 3 | 5.0 | 11.0 | 0.00 | 0.00 | 0.00 | 54 | 1015.4 |
| 20260507092715 | 67 | 4 | 6.0 | 12.0 | 0.00 | 0.00 | 0.00 | 54 | 1015.2 |
| 20260507092003 | 66 | 356 | 7.0 | 12.0 | 0.00 | 0.00 | 0.00 | 56 | 1015.3 |
| 20260507091505 | 67 | 10 | 7.0 | 12.0 | 0.00 | 0.00 | 0.00 | 55 | 1015.1 |
| 20260507091214 | 66 | 7 | 7.0 | 13.0 | 0.00 | 0.00 | 0.00 | 56 | 1015.3 |
| 20260507090503 | 66 | 14 | 7.0 | 15.0 | 0.00 | 0.00 | 0.00 | 58 | 1015.2 |
| 20260507090004 | 65 | 24 | 6.0 | 15.0 | 0.00 | 0.00 | 0.00 | 57 | 1015.3 |
| 20260507085505 | 66 | 11 | 6.0 | 15.0 | 0.00 | 0.00 | 0.00 | 57 | 1015.3 |
| 20260507085214 | 65 | 9 | 8.0 | 16.0 | 0.00 | 0.00 | 0.00 | 58 | 1015.3 |
| 20260507084713 | 65 | 11 | 9.0 | 16.0 | 0.00 | 0.00 | 0.00 | 60 | 1015.3 |
| 20260507084005 | 65 | 22 | 7.0 | 16.0 | 0.00 | 0.00 | 0.00 | 61 | 1015.4 |
| 20260507083713 | 66 | 20 | 7.0 | 16.0 | 0.00 | 0.00 | 0.00 | 61 | 1015.2 |
| 20260507083004 | 64 | 16 | 7.0 | 18.0 | 0.00 | 0.00 | 0.00 | 67 | 1015.3 |
| 20260507082503 | 66 | 18 | 6.0 | 14.0 | 0.00 | 0.00 | 0.00 | 63 | 1015.2 |
| 20260507082004 | 65 | 14 | 6.0 | 14.0 | 0.00 | 0.00 | 0.00 | 68 | 1015.0 |
| 20260507081714 | 65 | 7 | 6.0 | 14.0 | 0.00 | 0.00 | 0.00 | 66 | 1014.9 |
| 20260507081003 | 68 | 321 | 5.0 | 10.0 | 0.00 | 0.00 | 0.00 | 52 | 1014.9 |
| 20260507080503 | 67 | 296 | 6.0 | 13.0 | 0.00 | 0.00 | 0.00 | 52 | 1014.6 |
| 20260507080004 | 67 | 296 | 7.0 | 13.0 | 0.00 | 0.00 | 0.00 | 52 | 1014.8 |
| 20260507075714 | 67 | 297 | 7.0 | 13.0 | 0.00 | 0.00 | 0.00 | 54 | 1014.6 |
| 20260507075003 | 67 | 295 | 7.0 | 13.0 | 0.00 | 0.00 | 0.00 | 55 | 1014.6 |
| 20260507074504 | 66 | 303 | 7.0 | 11.0 | 0.00 | 0.00 | 0.00 | 56 | 1014.7 |
| 20260507074003 | 66 | 302 | 6.0 | 11.0 | 0.00 | 0.00 | 0.00 | 57 | 1014.5 |
| 20260507073503 | 66 | 317 | 5.0 | 11.0 | 0.00 | 0.00 | 0.00 | 56 | 1014.6 |
| 20260507073005 | 66 | 317 | 4.0 | 9.0 | 0.00 | 0.00 | 0.00 | 57 | 1014.8 |
| 20260507072503 | 65 | 328 | 4.0 | 8.0 | 0.00 | 0.00 | 0.00 | 57 | 1014.8 |
| 20260507072003 | 66 | 341 | 3.0 | 8.0 | 0.00 | 0.01 | 0.00 | 61 | 1014.7 |
| 20260507071503 | 66 | 305 | 1.0 | 5.0 | 0.00 | 0.01 | 0.00 | 59 | 1014.6 |
| 20260507071213 | 66 | 304 | 2.0 | 5.0 | 0.00 | 0.01 | 0.00 | 59 | 1014.9 |
| 20260507070714 | 67 | 307 | 2.0 | 5.0 | 0.00 | 0.01 | 0.00 | 58 | 1014.7 |
| 20260507070007 | 67 | 291 | 1.0 | 3.0 | 0.00 | 0.01 | 0.00 | 58 | 1014.8 |
| 20260507065503 | 67 | 296 | 1.0 | 3.0 | 0.00 | 0.01 | 0.00 | 60 | 1014.8 |
| 20260507065003 | 65 | 30 | 2.0 | 5.0 | 0.00 | 0.01 | 0.00 | 64 | 1014.7 |
| 20260507064503 | 65 | 53 | 3.0 | 6.0 | 0.00 | 0.01 | 0.00 | 67 | 1014.8 |
| 20260507064004 | 64 | 70 | 3.0 | 6.0 | 0.00 | 0.01 | 0.00 | 70 | 1014.9 |
| 20260507063716 | 64 | 69 | 3.0 | 6.0 | 0.00 | 0.01 | 0.00 | 72 | 1014.7 |
| 20260507063005 | 62 | 52 | 3.0 | 6.0 | 0.00 | 0.01 | 0.00 | 74 | 1014.8 |
| 20260507062503 | 63 | 29 | 3.0 | 6.0 | 0.00 | 0.01 | 0.00 | 75 | 1014.7 |
| 20260507062003 | 63 | 2 | 3.0 | 6.0 | 0.00 | 0.01 | 0.00 | 75 | 1014.7 |
| 20260507061503 | 63 | 340 | 3.0 | 6.0 | 0.00 | 0.01 | 0.00 | 76 | 1014.7 |
| 20260507061003 | 63 | 333 | 2.0 | 6.0 | 0.00 | 0.01 | 0.00 | 76 | 1014.8 |
| 20260507060503 | 62 | 356 | 2.0 | 6.0 | 0.00 | 0.01 | 0.00 | 76 | 1014.8 |
| 20260507060003 | 62 | 116 | 3.0 | 8.0 | 0.00 | 0.01 | 0.00 | 80 | 1014.6 |
| 20260507055503 | 60 | 122 | 4.0 | 8.0 | 0.00 | 0.01 | 0.00 | 83 | 1014.6 |
| 20260507055003 | 61 | 121 | 3.0 | 8.0 | 0.00 | 0.01 | 0.00 | 81 | 1014.7 |
| 20260507054503 | 61 | 193 | 3.0 | 8.0 | 0.00 | 0.01 | 0.00 | 81 | 1014.7 |
| 20260507054003 | 60 | 228 | 5.0 | 10.0 | 0.00 | 0.01 | 0.00 | 80 | 1014.4 |
| 20260507053504 | 60 | 232 | 6.0 | 10.0 | 0.00 | 0.01 | 0.00 | 82 | 1014.3 |
| 20260507053003 | 60 | 237 | 5.0 | 9.0 | 0.00 | 0.01 | 0.00 | 84 | 1014.4 |
| 20260507052505 | 59 | 264 | 4.0 | 9.0 | 0.00 | 0.01 | 0.00 | 86 | 1014.2 |
| 20260507052005 | 59 | 297 | 3.0 | 7.0 | 0.00 | 0.01 | 0.00 | 87 | 1014.5 |
| 20260507051715 | 59 | 309 | 3.0 | 7.0 | 0.00 | 0.01 | 0.00 | 86 | 1014.3 |
| 20260507051003 | 60 | 305 | 2.0 | 5.0 | 0.00 | 0.01 | 0.00 | 86 | 1014.1 |
| 20260507050503 | 60 | 359 | 1.0 | 4.0 | 0.00 | 0.01 | 0.00 | 85 | 1014.4 |
| 20260507050003 | 60 | 8 | 2.0 | 4.0 | 0.00 | 0.01 | 0.00 | 85 | 1014.3 |
| 20260507045504 | 60 | 344 | 2.0 | 5.0 | 0.00 | 0.01 | 0.00 | 86 | 1013.9 |
| 20260507045214 | 60 | 343 | 3.0 | 6.0 | 0.00 | 0.01 | 0.00 | 86 | 1014.0 |
| 20260507044506 | 61 | 309 | 2.0 | 6.0 | 0.00 | 0.02 | 0.00 | 86 | 1013.8 |
| 20260507044004 | 60 | 195 | 2.0 | 6.0 | 0.00 | 0.03 | 0.00 | 85 | 1013.8 |
| 20260507043713 | 60 | 172 | 3.0 | 7.0 | 0.00 | 0.03 | 0.00 | 85 | 1013.6 |
| 20260507043005 | 60 | 170 | 6.0 | 9.0 | 0.00 | 0.04 | 0.00 | 87 | 1013.6 |
| 20260507042503 | 60 | 172 | 6.0 | 9.0 | 0.00 | 0.04 | 0.00 | 87 | 1013.6 |
| 20260507042003 | 60 | 169 | 6.0 | 9.0 | 0.00 | 0.05 | 0.00 | 87 | 1013.9 |
| 20260507041503 | 60 | 166 | 6.0 | 9.0 | 0.00 | 0.05 | 0.00 | 87 | 1013.8 |
| 20260507041003 | 60 | 166 | 6.0 | 10.0 | 0.00 | 0.05 | 0.00 | 86 | 1013.7 |
| 20260507040713 | 60 | 166 | 6.0 | 10.0 | 0.00 | 0.05 | 0.00 | 86 | 1013.6 |
| 20260507040008 | 60 | 159 | 5.0 | 10.0 | 0.00 | 0.05 | 0.00 | 86 | 1013.5 |
| 20260507035713 | 60 | 152 | 5.0 | 8.0 | 0.00 | 0.05 | 0.00 | 86 | 1013.5 |
| 20260507035004 | 60 | 148 | 5.0 | 8.0 | 0.00 | 0.05 | 0.00 | 85 | 1013.5 |
| 20260507034503 | 60 | 168 | 5.0 | 9.0 | 0.00 | 0.05 | 0.00 | 85 | 1013.4 |
| 20260507034003 | 60 | 166 | 5.0 | 9.0 | 0.00 | 0.05 | 0.00 | 85 | 1013.3 |
| 20260507033504 | 59 | 155 | 6.0 | 9.0 | 0.00 | 0.05 | 0.00 | 88 | 1013.4 |
| 20260507033003 | 59 | 160 | 7.0 | 10.0 | 0.00 | 0.05 | 0.00 | 88 | 1013.4 |
| 20260507032503 | 59 | 160 | 7.0 | 10.0 | 0.00 | 0.05 | 0.00 | 88 | 1013.6 |
| 20260507032004 | 59 | 156 | 6.0 | 10.0 | 0.00 | 0.05 | 0.00 | 88 | 1013.4 |
| 20260507031713 | 59 | 160 | 6.0 | 10.0 | 0.00 | 0.05 | 0.00 | 88 | 1013.5 |
| 20260507031003 | 59 | 158 | 6.0 | 10.0 | 0.00 | 0.05 | 0.00 | 87 | 1013.6 |
| 20260507030713 | 59 | 155 | 5.0 | 10.0 | 0.00 | 0.05 | 0.00 | 86 | 1013.4 |
| 20260507030003 | 60 | 166 | 3.0 | 5.0 | 0.00 | 0.05 | 0.00 | 83 | 1013.4 |
| 20260507025712 | 60 | 191 | 2.0 | 6.0 | 0.00 | 0.05 | 0.00 | 83 | 1013.5 |
| 20260507025005 | 60 | 349 | 1.0 | 6.0 | 0.00 | 0.05 | 0.00 | 83 | 1013.5 |
| 20260507024503 | 60 | 152 | 1.0 | 5.0 | 0.00 | 0.05 | 0.00 | 82 | 1013.4 |
| 20260507024004 | 60 | 139 | 2.0 | 4.0 | 0.00 | 0.05 | 0.00 | 81 | 1013.5 |
| 20260507023503 | 61 | 120 | 1.0 | 4.0 | 0.00 | 0.05 | 0.00 | 82 | 1013.4 |
| 20260507023213 | 61 | 346 | 2.0 | 6.0 | 0.00 | 0.05 | 0.00 | 81 | 1013.4 |
| 20260507022503 | 61 | 308 | 2.0 | 6.0 | 0.00 | 0.05 | 0.00 | 80 | 1013.4 |
| 20260507022003 | 61 | 339 | 2.0 | 6.0 | 0.00 | 0.05 | 0.00 | 80 | 1013.4 |
| 20260507021503 | 61 | 360 | 4.0 | 6.0 | 0.00 | 0.05 | 0.00 | 78 | 1013.4 |
| 20260507021005 | 61 | 8 | 3.0 | 6.0 | 0.00 | 0.05 | 0.00 | 79 | 1013.5 |
| 20260507020503 | 62 | 15 | 2.0 | 6.0 | 0.00 | 0.05 | 0.00 | 80 | 1013.5 |
| 20260507020003 | 61 | 350 | 3.0 | 9.0 | 0.00 | 0.05 | 0.00 | 80 | 1013.4 |
| 20260507015503 | 61 | 337 | 3.0 | 9.0 | 0.00 | 0.05 | 0.00 | 81 | 1013.5 |
| 20260507015005 | 62 | 151 | 1.0 | 6.0 | 0.00 | 0.05 | 0.00 | 80 | 1013.5 |
| 20260507014714 | 62 | 100 | 1.0 | 5.0 | 0.00 | 0.05 | 0.00 | 81 | 1013.3 |
| 20260507014003 | 62 | 56 | 2.0 | 5.0 | 0.00 | 0.05 | 0.00 | 81 | 1013.3 |
| 20260507013503 | 62 | 84 | 1.0 | 5.0 | 0.00 | 0.05 | 0.00 | 81 | 1013.5 |
| 20260507013003 | 62 | 90 | 2.0 | 6.0 | 0.00 | 0.05 | 0.00 | 80 | 1013.4 |
| 20260507012503 | 62 | 113 | 3.0 | 6.0 | 0.00 | 0.05 | 0.00 | 80 | 1013.4 |
| 20260507012215 | 62 | 94 | 3.0 | 6.0 | 0.00 | 0.05 | 0.00 | 80 | 1013.5 |
| 20260507011503 | 62 | 356 | 3.0 | 6.0 | 0.00 | 0.05 | 0.00 | 79 | 1013.5 |
| 20260507011213 | 62 | 4 | 3.0 | 9.0 | 0.00 | 0.05 | 0.00 | 79 | 1013.3 |
| 20260507010503 | 62 | 14 | 5.0 | 10.0 | 0.00 | 0.05 | 0.00 | 79 | 1013.4 |
| 20260507010213 | 62 | 12 | 4.0 | 10.0 | 0.00 | 0.05 | 0.00 | 79 | 1013.3 |
| 20260507005505 | 63 | 55 | 2.0 | 5.0 | 0.00 | 0.05 | 0.00 | 77 | 1013.3 |
| 20260507005005 | 63 | 43 | 2.0 | 5.0 | 0.00 | 0.05 | 0.00 | 76 | 1013.4 |
| 20260507004503 | 63 | 2 | 2.0 | 5.0 | 0.00 | 0.05 | 0.00 | 75 | 1013.3 |
| 20260507004005 | 63 | 69 | 3.0 | 6.0 | 0.00 | 0.05 | 0.00 | 75 | 1013.4 |
| 20260507003503 | 63 | 44 | 3.0 | 6.0 | 0.00 | 0.05 | 0.00 | 75 | 1013.5 |
| 20260507003004 | 63 | 13 | 2.0 | 6.0 | 0.00 | 0.05 | 0.00 | 73 | 1013.3 |
| 20260507002503 | 63 | 12 | 2.0 | 8.0 | 0.00 | 0.05 | 0.00 | 74 | 1013.5 |
| 20260507002004 | 63 | 357 | 3.0 | 8.0 | 0.00 | 0.05 | 0.00 | 73 | 1013.5 |
| 20260507001503 | 63 | 357 | 3.0 | 8.0 | 0.00 | 0.05 | 0.00 | 73 | 1013.3 |
| 20260507001005 | 64 | 348 | 3.0 | 12.0 | 0.00 | 0.05 | 0.00 | 73 | 1013.6 |
| 20260507000503 | 64 | 343 | 4.0 | 12.0 | 0.00 | 0.05 | 0.00 | 72 | 1013.6 |
| 20260507000003 | 64 | 326 | 5.0 | 11.0 | 0.00 | 0.05 | 0.00 | 72 | 1013.5 |
| 20260506235503 | 64 | 277 | 5.0 | 11.0 | 0.00 | 0.05 | 0.00 | 70 | 1013.4 |
| 20260506235212 | 65 | 237 | 4.0 | 7.0 | 0.00 | 0.05 | 0.00 | 67 | 1013.4 |
| 20260506234505 | 65 | 244 | 5.0 | 9.0 | 0.00 | 0.05 | 0.00 | 65 | 1013.4 |
| 20260506234003 | 65 | 275 | 6.0 | 12.0 | 0.00 | 0.05 | 0.00 | 66 | 1013.2 |
| 20260506233503 | 65 | 292 | 5.0 | 12.0 | 0.00 | 0.05 | 0.00 | 67 | 1013.3 |
| 20260506233003 | 64 | 248 | 6.0 | 11.0 | 0.00 | 0.05 | 0.00 | 69 | 1013.5 |
| 20260506232503 | 64 | 201 | 7.0 | 13.0 | 0.00 | 0.05 | 0.00 | 70 | 1013.3 |
| 20260506232214 | 64 | 193 | 8.0 | 13.0 | 0.00 | 0.05 | 0.00 | 70 | 1013.4 |
| 20260506231713 | 64 | 184 | 10.0 | 13.0 | 0.00 | 0.05 | 0.00 | 71 | 1013.3 |
| 20260506231005 | 64 | 181 | 12.0 | 20.0 | 0.00 | 0.05 | 0.00 | 71 | 1013.0 |
| 20260506230503 | 65 | 181 | 15.0 | 20.0 | 0.00 | 0.05 | 0.00 | 69 | 1013.0 |
| 20260506230003 | 64 | 180 | 16.0 | 19.0 | 0.00 | 0.05 | 0.00 | 69 | 1013.3 |
| 20260506225503 | 65 | 183 | 15.0 | 19.0 | 0.00 | 0.05 | 0.00 | 69 | 1013.3 |
| 20260506225003 | 64 | 183 | 14.0 | 19.0 | 0.00 | 0.05 | 0.00 | 70 | 1013.2 |
| 20260506224503 | 64 | 181 | 14.0 | 22.0 | 0.00 | 0.05 | 0.00 | 70 | 1013.3 |
| 20260506224003 | 65 | 184 | 16.0 | 22.0 | 0.00 | 0.05 | 0.00 | 69 | 1013.4 |
| 20260506223503 | 65 | 184 | 14.0 | 22.0 | 0.00 | 0.05 | 0.00 | 68 | 1013.2 |
| 20260506223003 | 64 | 183 | 13.0 | 19.0 | 0.00 | 0.05 | 0.00 | 71 | 1013.3 |
| 20260506222503 | 64 | 177 | 13.0 | 17.0 | 0.00 | 0.05 | 0.00 | 71 | 1013.3 |
| 20260506222214 | 64 | 175 | 12.0 | 17.0 | 0.00 | 0.05 | 0.00 | 71 | 1013.4 |
| 20260506221504 | 64 | 181 | 11.0 | 14.0 | 0.00 | 0.05 | 0.00 | 71 | 1013.4 |
| 20260506221214 | 64 | 182 | 11.0 | 14.0 | 0.00 | 0.05 | 0.00 | 70 | 1013.5 |
| 20260506220504 | 64 | 180 | 10.0 | 14.0 | 0.00 | 0.05 | 0.00 | 70 | 1013.5 |
| 20260506220216 | 64 | 178 | 9.0 | 13.0 | 0.00 | 0.05 | 0.00 | 71 | 1013.3 |
| 20260506215713 | 64 | 172 | 9.0 | 12.0 | 0.00 | 0.05 | 0.05 | 72 | 1013.2 |
| 20260506215006 | 64 | 169 | 8.0 | 12.0 | 0.00 | 0.05 | 0.05 | 72 | 1013.3 |
| 20260506214503 | 64 | 171 | 8.0 | 12.0 | 0.00 | 0.05 | 0.05 | 73 | 1013.2 |
| 20260506214006 | 62 | 161 | 7.0 | 10.0 | 0.00 | 0.05 | 0.05 | 76 | 1013.4 |
| 20260506213503 | 62 | 157 | 7.0 | 9.0 | 0.00 | 0.05 | 0.05 | 79 | 1013.3 |
| 20260506213005 | 63 | 155 | 7.0 | 9.0 | 0.00 | 0.05 | 0.05 | 77 | 1013.4 |
| 20260506212503 | 63 | 153 | 7.0 | 9.0 | 0.00 | 0.05 | 0.05 | 75 | 1013.3 |
| 20260506212003 | 63 | 153 | 7.0 | 10.0 | 0.00 | 0.06 | 0.05 | 75 | 1013.3 |
| 20260506211503 | 64 | 148 | 5.0 | 10.0 | 0.00 | 0.07 | 0.05 | 75 | 1013.4 |
| 20260506211003 | 64 | 133 | 2.0 | 7.0 | 0.00 | 0.07 | 0.05 | 76 | 1013.5 |
| 20260506210503 | 64 | 57 | 1.0 | 3.0 | 0.00 | 0.07 | 0.05 | 76 | 1013.4 |
| 20260506210003 | 64 | 348 | 1.0 | 2.0 | 0.00 | 0.08 | 0.05 | 76 | 1013.5 |
| 20260506205503 | 64 | 13 | 2.0 | 4.0 | 0.00 | 0.09 | 0.05 | 76 | 1013.5 |
| 20260506205003 | 64 | 50 | 2.0 | 4.0 | 0.00 | 0.11 | 0.05 | 75 | 1013.4 |
| 20260506204714 | 64 | 72 | 2.0 | 4.0 | 0.00 | 0.12 | 0.05 | 75 | 1013.4 |
| 20260506204213 | 64 | 70 | 2.0 | 6.0 | 0.00 | 0.14 | 0.05 | 75 | 1013.3 |
| 20260506203503 | 64 | 64 | 3.0 | 6.0 | 0.00 | 0.16 | 0.05 | 74 | 1013.4 |
| 20260506203003 | 64 | 56 | 3.0 | 6.0 | 0.00 | 0.16 | 0.05 | 75 | 1013.3 |
| 20260506202503 | 64 | 38 | 4.0 | 5.0 | 0.00 | 0.16 | 0.05 | 74 | 1013.4 |
| 20260506202003 | 65 | 17 | 4.0 | 6.0 | 0.00 | 0.16 | 0.05 | 74 | 1013.3 |
| 20260506201714 | 65 | 10 | 4.0 | 6.0 | 0.00 | 0.17 | 0.05 | 73 | 1013.2 |
| 20260506201003 | 65 | 12 | 3.0 | 6.0 | 0.00 | 0.17 | 0.05 | 74 | 1013.5 |
| 20260506200503 | 65 | 2 | 3.0 | 6.0 | 0.00 | 0.18 | 0.05 | 74 | 1013.1 |
| 20260506200003 | 65 | 5 | 2.0 | 4.0 | 0.00 | 0.19 | 0.05 | 73 | 1013.2 |
| 20260506195503 | 65 | 14 | 3.0 | 6.0 | 0.00 | 0.19 | 0.05 | 73 | 1013.3 |
| 20260506195004 | 65 | 12 | 4.0 | 6.0 | 0.00 | 0.20 | 0.05 | 73 | 1013.2 |
| 20260506194505 | 65 | 7 | 4.0 | 7.0 | 0.00 | 0.21 | 0.05 | 73 | 1013.1 |
| 20260506194213 | 65 | 3 | 4.0 | 7.0 | 0.00 | 0.21 | 0.05 | 73 | 1013.0 |
| 20260506193505 | 65 | 18 | 3.0 | 7.0 | 0.00 | 0.21 | 0.05 | 73 | 1013.0 |
| 20260506193004 | 65 | 11 | 3.0 | 7.0 | 0.00 | 0.22 | 0.05 | 73 | 1012.8 |